Tracking 19489 objects as of 22-Jan-2019
HD Live streaming from Space Station
objects crossing your sky now

FENGYUN 1C DEB

Track FENGYUN 1C DEB now!
10-day predictions


NORAD ID: 32123
Int'l Code: 1999-025CRR
Perigee: 591.9 km
Apogee: 844.4 km
Inclination: 98.9 °
Period: 99.0 minutes
Semi major axis: 7089 km
RCS: 0.0018 m2 (small)
Launch date: May 10, 1999
Source: People's Republic of China (PRC)
Launch site: Taiyaun Space Center, China (TSC)

Note: This is SATELLITE DEBRIS
aabbcc
Your satellite tracking list
Your tracking list is empty




NASA's NSSDC Master Catalog

Two Line Element Set (TLE):
1 32123U 99025CRR 19021.84879323  .00000114  00000-0  33698-4 0  9992
2 32123  98.9126 344.4560 0178090  22.4305   7.6511 14.54495769609992
Source of the keplerian elements: AFSPC